Temperature
21 20 21 21 20 20 20 20 20 19 19 19 19 19 19 19 19 19 19 19 19 19 19 19 19 19 19 19 20 20 20 20 20 19 19 19 19 19 18 18 17 17 18
21 20 21 21 20 20 20 20 20 20 19 19 19 19 19 19 19 19 19 19 19 19 19 19 19 19 19 19 19 19 20 20 20 20 20 19 19 19 19 18 18 18 18
20 19 21 20 20 20 20 20 20 20 19 19 19 19 19 19 19 19 19 19 19 19 19 19 19 19 19 19 19 19 19 19 19 19 19 18 19 20 19 19 18 19 19
20 19 20 21 20 20 19 20 20 20 19 19 19 19 19 19 19 20 19 19 19 19 19 19 19 19 19 19 18 19 19 19 19 19 18 17 18 19 19 19 19 18 18
20 19 19 21 21 20 20 19 20 20 19 19 19 19 19 20 20 20 19 19 19 19 19 19 19 19 19 19 19 18 18 19 19 19 17 17 18 18 19 19 19 19 18
19 18 20 21 21 20 20 20 20 20 20 20 20 20 20 20 20 20 19 19 19 19 19 19 19 19 19 19 18 18 18 18 18 17 17 17 17 18 18 18 18 18 18
19 19 20 21 21 21 20 20 20 20 20 20 20 20 20 19 19 19 19 19 19 19 19 19 19 19 19 19 18 18 18 18 18 18 18 17 17 18 18 18 18 18 17
20 19 18 21 20 20 20 20 20 20 20 20 20 20 19 19 19 19 19 19 19 19 19 18 19 18 18 18 18 18 18 18 17 17 17 17 17 18 18 18 18 18 18
19 19 18 19 20 20 20 20 20 20 20 20 20 19 19 19 19 19 19 19 19 19 19 18 18 18 18 18 18 18 18 18 18 17 17 17 17 17 18 18 18 18 18
19 19 18 18 19 20 20 20 20 20 20 20 19 19 19 19 19 19 19 19 18 18 18 18 18 18 18 18 18 18 18 18 17 17 17 17 17 17 18 18 18 18 17
19 19 18 18 18 17 18 19 20 19 19 19 19 19 19 18 18 18 18 18 18 18 18 18 18 18 18 18 18 18 18 17 18 18 18 18 18 18 18 18 18 17 17
19 19 19 18 18 17 17 17 17 18 17 17 17 17 17 17 18 18 18 18 19 18 18 18 18 18 18 18 18 18 18 18 18 18 18 18 18 18 18 18 18 18 18
19 19 18 18 18 17 18 18 18 18 18 17 17 17 17 18 18 18 18 18 18 18 18 18 18 18 18 18 18 18 17 17 17 18 18 17 18 18 18 18 18 18 18
18 19 19 18 17 17 18 17 18 18 17 17 18 17 17 17 18 17 18 18 18 18 18 18 18 18 18 18 18 18 18 17 18 18 18 18 18 18 18 18 18 18 18
19 19 19 18 17 17 17 17 17 17 18 18 18 18 18 18 18 17 17 18 18 18 18 18 18 18 18 18 18 18 18 18 18 18 18 18 18 18 18 18 18 18 18
19 19 19 18 18 18 17 17 17 17 18 18 18 18 17 17 17 17 17 18 18 18 18 18 18 18 17 17 17 17 17 17 17 17 17 18 18 18 18 18 18 18 18
19 18 18 18 18 18 18 18 18 18 18 18 18 18 17 17 18 18 18 18 18 18 18 18 18 18 18 18 18 18 18 17 17 17 17 18 18 18 18 18 18 18 18
18 18 18 18 18 18 18 18 18 18 18 18 18 18 18 17 17 18 17 18 18 18 18 18 18 18 18 18 18 18 18 18 18 17 18 18 18 18 18 18 18 18 18
18 18 18 18 18 18 18 18 18 18 17 18 18 18 18 17 17 17 17 17 18 18 18 18 18 18 18 18 18 18 17 17 17 18 18 18 18 18 18 18 18 18 19
19 20 20 20 20 20 19 18 18 18 18 18 18 19 19 18 18 18 18 17 17 17 18 18 17 17 17 17 17 17 17 17 17 18 18 18 18 18 19 19 18 18 18
19 20 21 22 23 22 22 20 18 18 18 18 18 19 18 19 19 19 19 18 17 16 17 17 17 17 17 17 17 17 18 18 18 18 18 18 18 18 19 19 18 18 18
18 18 20 20 20 20 21 20 19 19 19 18 18 18 20 20 19 19 19 18 17 16 16 17 17 16 16 16 16 16 18 19 19 18 18 18 18 18 18 18 18 18 17
17 18 19 20 20 18 17 17 16 17 17 16 17 19 20 19 19 18 15 16 16 16 16 16 16 16 16 16 16 16 18 20 18 18 18 18 17 17 17 17 18 17 17
19 18 18 19 18 17 16 16 15 15 15 16 17 18 20 19 18 16 15 14 15 15 15 15 16 15 15 15 16 15 15 15 15 17 18 18 17 16 16 16 17 17 17
19 19 18 18 19 18 17 15 14 14 16 16 17 18 18 18 16 15 16 15 15 15 15 15 16 15 15 15 15 15 15 15 15 14 15 17 17 17 17 16 16 16 17
17 17 17 17 17 16 15 15 14 14 15 15 15 17 17 16 15 14 14 14 14 15 15 16 16 15 15 14 14 14 14 14 14 14 14 15 16 17 16 16 16 16 16
Wind_Speed
15 21 20 19 16 15 15 17 19 19 19 17 16 16 14 12 11 10 9 10 10 10 10 10 10 10 10 11 11 11 10 10 10 9 8 7 6 7 8 7 8 10 10
18 21 21 19 18 16 15 16 18 19 18 18 17 16 14 12 10 8 8 8 8 8 8 9 10 9 9 8 8 9 8 7 7 7 7 8 6 5 5 2 2 10 9
19 21 20 18 17 16 16 15 17 18 18 17 16 15 13 12 11 10 9 7 7 7 7 7 8 8 8 7 7 6 6 5 4 4 5 7 9 7 5 3 4 7 8
19 21 20 19 17 17 17 16 17 18 17 16 15 14 12 12 11 10 9 8 7 6 6 6 6 7 6 5 6 5 5 4 4 3 5 3 6 8 7 6 5 5 6
17 18 19 19 18 17 17 16 16 16 15 14 14 13 12 12 10 9 8 7 6 5 4 4 5 5 5 3 4 5 5 4 4 6 4 2 2 10 8 7 7 7 6
17 17 20 18 17 16 16 16 15 15 14 13 12 11 10 10 10 10 9 8 6 4 4 4 4 3 3 2 2 2 3 5 7 9 5 5 4 7 7 8 6 5 7
17 16 20 18 17 16 16 15 15 15 15 14 13 12 11 9 8 8 7 7 6 6 5 5 4 3 3 3 3 3 3 4 9 8 6 7 7 7 5 8 9 10 10
16 15 19 18 17 16 16 16 16 16 15 14 12 12 11 10 9 8 7 7 6 7 6 6 6 5 5 4 4 5 5 5 9 9 7 7 2 3 6 9 9 11 13
15 14 16 18 17 16 16 16 16 15 14 12 12 11 10 10 9 9 8 8 7 7 7 7 7 6 6 6 7 7 8 7 10 10 7 8 7 5 8 10 10 11 14
15 14 14 16 17 16 16 15 15 15 14 13 12 10 9 9 9 9 9 11 9 8 8 8 8 8 8 8 9 10 9 10 12 12 9 7 7 5 9 12 12 11 13
15 14 14 14 14 14 14 14 14 13 12 12 11 11 10 11 11 12 12 8 8 9 10 10 10 10 9 13 17 15 12 13 13 10 10 5 7 8 13 14 14 13 13
15 14 13 13 12 11 11 11 12 13 14 14 13 13 12 12 9 7 6 7 9 11 11 12 12 11 12 14 14 15 12 13 11 10 10 6 9 11 15 16 16 15 15
13 13 10 7 6 9 9 9 10 11 10 12 13 12 12 11 10 10 10 10 11 12 11 11 12 12 11 10 8 8 9 9 11 11 10 8 11 14 17 17 17 18 18
13 13 13 11 8 9 7 5 8 4 7 10 13 13 12 10 10 9 9 9 9 9 8 8 9 9 10 12 12 11 11 11 11 9 10 12 15 17 18 18 17 18 18
11 12 10 6 8 8 7 8 8 10 12 12 12 12 13 11 10 9 9 9 9 9 8 7 8 8 9 11 12 12 12 11 10 10 10 12 16 18 18 18 18 17 17
9 10 8 9 9 8 8 10 9 11 13 13 14 14 13 13 11 10 9 10 10 11 10 8 7 8 9 9 10 12 11 11 11 10 13 13 16 16 17 17 18 18 18
7 7 7 7 7 8 10 11 12 14 14 13 13 13 14 14 14 11 11 11 10 10 9 9 9 10 10 11 12 11 10 10 11 10 12 13 12 18 19 19 18 19 20
3 4 2 0 3 4 8 11 12 13 13 12 13 13 13 14 16 13 13 12 13 11 10 11 10 11 10 10 10 9 9 9 10 10 12 13 12 12 16 21 19 20 20
7 7 6 5 2 2 4 7 9 10 10 10 11 9 9 10 14 12 13 15 15 13 13 12 11 11 10 11 11 9 8 9 11 12 12 11 12 13 12 14 19 19 20
10 10 9 7 4 1 3 6 6 8 9 9 8 6 4 6 7 7 11 15 16 14 13 11 10 10 9 10 10 10 11 11 11 14 14 13 14 15 15 14 14 17 22
10 9 9 9 10 9 5 6 6 7 8 8 9 9 6 3 5 5 6 9 11 13 11 9 9 11 10 9 11 13 15 15 15 14 14 14 16 17 18 16 14 15 16
10 12 11 10 7 6 3 3 4 3 3 9 11 9 8 5 6 8 8 6 6 8 10 9 9 10 10 9 9 11 13 13 13 11 11 11 13 13 15 15 15 15 13
12 13 12 11 9 6 3 3 3 1 2 9 13 12 10 6 4 7 11 11 6 7 7 7 8 10 10 9 7 7 7 9 7 8 10 10 10 10 10 11 12 12 13
11 10 10 10 10 7 5 5 11 12 14 15 10 6 8 13 12 7 2 6 1 5 6 6 6 8 8 8 7 9 11 10 6 7 8 9 8 8 8 7 8 9 11
14 14 13 13 13 11 9 12 14 16 15 9 6 7 5 7 12 8 6 6 7 6 5 7 5 6 6 7 6 7 8 8 9 7 9 10 7 8 8 8 6 7 9
13 14 15 16 16 15 14 16 18 16 12 9 9 8 6 6 8 8 8 9 8 6 6 6 5 8 7 7 7 6 6 5 6 7 7 8 9 8 4 7 7 8 8
Wind_Direction
159 149 163 166 167 160 147 141 140 146 147 149 149 147 148 147 143 134 126 117 109 103 102 102 100 100 102 106 109 109 109 111 115 117 119 122 122 123 128 154 184 120 121
154 151 161 166 167 162 151 142 139 143 147 149 149 148 149 149 145 137 130 123 117 112 110 109 104 102 103 107 111 112 116 118 118 126 144 146 141 139 140 163 11 107 134
151 151 161 165 166 163 155 147 140 141 145 147 147 149 150 149 147 143 140 135 124 113 107 108 110 107 105 108 111 115 118 120 126 134 215 186 141 146 151 144 104 129 141
152 153 160 161 166 164 157 153 148 147 149 151 153 154 156 153 150 146 143 139 133 121 108 103 108 112 114 121 125 131 133 136 147 196 227 182 143 142 159 158 162 162 161
148 150 148 157 164 164 160 158 155 152 155 158 160 160 164 165 159 153 147 144 145 143 133 118 116 121 131 129 140 157 166 174 186 226 209 208 189 140 166 179 184 187 204
149 152 142 159 162 163 162 160 159 157 162 165 167 167 169 170 168 166 164 161 163 164 159 146 136 141 150 151 141 184 202 212 226 225 206 199 220 128 165 201 221 217 204
156 153 147 160 160 163 165 165 167 164 167 171 174 174 173 172 173 173 174 177 176 175 163 146 155 163 171 185 195 219 238 258 259 262 223 222 207 158 192 222 234 233 219
160 157 154 164 166 169 172 176 177 175 174 175 178 179 179 178 180 186 196 205 197 190 186 177 184 190 206 224 227 229 237 253 260 254 255 258 161 162 239 253 267 250 226
164 162 158 171 176 180 184 186 186 183 183 184 187 189 189 189 192 197 205 223 224 219 216 204 207 211 220 231 236 237 237 240 266 269 254 249 207 204 245 263 273 257 233
170 169 166 177 180 189 192 195 195 193 192 194 197 200 204 208 211 214 216 221 227 240 242 238 234 233 237 241 241 239 240 245 249 255 243 230 149 201 249 258 263 257 242
177 176 176 183 184 195 197 191 202 204 204 205 210 211 216 226 217 217 216 204 222 243 250 253 251 248 249 248 235 227 230 250 248 255 262 184 180 221 247 255 258 255 252
181 181 188 186 184 197 205 194 205 212 214 215 220 222 223 235 241 251 240 202 237 247 250 249 250 250 250 253 230 215 232 251 260 261 259 188 205 229 244 250 254 249 250
186 186 188 194 182 211 213 213 215 221 226 225 225 236 239 244 241 236 238 224 231 229 244 239 239 243 252 263 264 262 260 264 259 253 246 213 234 241 242 243 249 250 250
192 198 180 181 197 218 231 255 271 278 262 251 234 227 239 239 243 247 255 253 252 249 250 257 262 267 271 272 273 267 266 253 257 261 248 213 229 238 240 241 241 243 245
194 206 178 193 217 223 224 233 239 241 236 240 246 240 240 246 249 247 252 259 261 262 253 251 267 273 280 271 267 269 272 272 268 266 273 238 224 231 237 240 241 239 236
192 203 203 202 214 231 236 242 250 250 256 252 247 244 238 245 254 261 255 253 255 260 272 285 283 283 277 276 278 276 279 283 279 267 266 250 214 222 230 232 235 238 233
188 192 210 222 230 229 235 241 243 250 253 256 254 249 247 247 251 254 265 263 260 258 265 270 265 262 264 264 258 261 264 260 257 259 264 264 238 218 221 228 230 231 230
124 113 120 47 293 257 244 245 246 247 249 254 258 255 247 251 257 261 264 267 272 268 261 260 264 268 269 269 273 275 270 270 269 264 258 255 256 248 221 218 219 225 225
113 105 101 84 28 313 267 253 256 254 250 249 249 261 280 282 279 279 277 279 279 279 270 265 265 267 275 272 271 275 280 273 272 267 264 259 256 250 247 221 206 219 222
140 138 137 137 125 74 299 265 248 248 240 237 235 239 273 292 298 297 273 274 279 272 278 282 278 276 265 270 278 283 274 260 260 261 258 253 252 254 253 248 228 220 214
189 191 191 194 183 181 192 235 239 239 252 248 221 212 216 237 228 205 228 255 271 266 267 277 274 270 272 283 287 283 278 272 262 261 260 262 262 263 264 257 246 242 224
267 271 280 285 289 268 221 224 219 192 232 250 241 221 207 224 259 230 181 184 237 260 261 263 271 279 280 274 276 293 284 275 255 242 254 263 270 274 269 254 237 236 244
277 282 291 295 305 313 329 339 316 99 193 246 241 230 215 193 240 256 222 144 176 236 253 258 269 277 284 282 271 268 283 286 317 264 254 256 265 273 269 260 244 234 234
312 309 306 305 297 279 256 231 239 241 242 246 244 225 210 188 172 134 49 83 196 256 264 268 265 280 282 283 271 255 261 277 279 284 265 262 249 259 261 258 247 242 242
316 316 315 312 308 301 275 255 253 253 253 245 232 214 203 209 199 175 175 197 195 219 244 257 266 271 281 284 286 278 278 275 261 250 273 278 258 250 242 242 241 245 247
304 304 306 305 303 299 282 264 254 251 249 216 195 197 194 192 186 193 200 205 199 199 223 243 255 257 261 275 286 282 270 260 259 253 263 283 291 293 276 245 234 237 243
Height
1531 1530 1531 1534 1538 1541 1544 1545 1548 1550 1552 1553 1555 1556 1557 1557 1558 1560 1560 1561 1562 1563 1564 1565 1565 1565 1566 1566 1566 1566 1565 1565 1564 1565 1565 1565 1565 1566 1566 1567 1567 1568 1566
1531 1531 1532 1535 1539 1542 1544 1546 1548 1550 1552 1553 1555 1557 1558 1559 1560 1561 1562 1562 1563 1564 1564 1565 1566 1566 1566 1567 1567 1566 1566 1567 1566 1566 1566 1566 1567 1567 1568 1568 1568 1568 1567
1530 1531 1533 1537 1539 1542 1545 1547 1549 1551 1553 1554 1555 1557 1559 1559 1560 1561 1562 1562 1563 1564 1564 1565 1566 1566 1566 1566 1566 1566 1567 1567 1568 1568 1567 1569 1568 1568 1568 1569 1569 1569 1569
1530 1531 1534 1536 1540 1542 1545 1547 1549 1551 1553 1555 1556 1557 1558 1559 1560 1560 1561 1562 1562 1563 1564 1565 1565 1566 1566 1566 1566 1566 1566 1567 1567 1568 1569 1571 1570 1568 1568 1568 1569 1570 1570
1531 1533 1535 1537 1539 1542 1544 1547 1549 1552 1554 1555 1556 1557 1558 1559 1560 1560 1561 1561 1562 1563 1564 1565 1565 1565 1566 1565 1565 1565 1565 1566 1566 1567 1569 1569 1570 1569 1568 1568 1569 1569 1570
1532 1533 1534 1537 1539 1542 1545 1548 1550 1552 1554 1555 1556 1557 1558 1559 1559 1559 1560 1561 1562 1563 1563 1563 1564 1565 1565 1565 1565 1565 1565 1564 1564 1566 1567 1567 1567 1568 1567 1567 1567 1568 1569
1532 1534 1534 1537 1540 1543 1545 1548 1550 1552 1554 1556 1556 1557 1558 1558 1560 1560 1560 1561 1561 1562 1562 1562 1563 1564 1564 1563 1563 1563 1563 1563 1563 1567 1566 1565 1566 1565 1566 1565 1566 1567 1567
1533 1535 1535 1537 1540 1543 1545 1547 1549 1551 1554 1556 1556 1557 1558 1558 1559 1560 1561 1561 1561 1561 1561 1561 1561 1561 1562 1561 1561 1561 1561 1561 1562 1563 1563 1563 1562 1562 1563 1563 1564 1564 1565
1533 1535 1536 1537 1539 1542 1545 1547 1549 1552 1554 1556 1557 1558 1558 1559 1559 1560 1561 1562 1561 1561 1561 1560 1559 1559 1559 1559 1559 1559 1558 1558 1558 1561 1560 1560 1559 1559 1559 1560 1561 1561 1562
1533 1535 1536 1537 1539 1541 1544 1547 1549 1551 1553 1556 1558 1559 1559 1559 1559 1560 1560 1561 1561 1561 1560 1559 1558 1558 1557 1557 1557 1556 1555 1555 1555 1557 1557 1557 1556 1556 1556 1556 1557 1558 1559
1531 1534 1537 1539 1541 1543 1545 1547 1549 1551 1553 1555 1557 1558 1558 1559 1560 1560 1560 1560 1560 1560 1559 1557 1557 1556 1555 1554 1555 1554 1553 1553 1556 1555 1555 1553 1552 1552 1552 1553 1554 1555 1556
1531 1535 1537 1541 1543 1545 1548 1550 1550 1553 1554 1556 1557 1558 1558 1559 1560 1559 1559 1557 1558 1558 1557 1556 1555 1554 1552 1553 1554 1552 1551 1552 1552 1552 1551 1549 1549 1548 1548 1549 1550 1551 1552
1533 1535 1537 1540 1543 1545 1549 1551 1553 1555 1556 1556 1556 1557 1558 1557 1557 1557 1557 1556 1556 1556 1555 1555 1555 1553 1553 1552 1552 1551 1550 1549 1548 1548 1548 1546 1545 1544 1544 1545 1546 1546 1547
1533 1536 1539 1540 1542 1545 1548 1550 1551 1553 1553 1553 1554 1554 1555 1554 1555 1555 1556 1556 1555 1555 1554 1553 1553 1552 1551 1550 1548 1548 1546 1546 1546 1546 1544 1542 1541 1541 1541 1541 1541 1541 1542
1533 1536 1538 1538 1539 1541 1544 1546 1548 1550 1552 1552 1552 1552 1552 1552 1553 1552 1552 1553 1553 1553 1551 1550 1550 1549 1548 1547 1546 1545 1544 1543 1542 1541 1540 1539 1538 1537 1537 1538 1538 1538 1537
1531 1534 1536 1536 1537 1538 1541 1542 1544 1546 1548 1548 1548 1549 1549 1548 1550 1551 1551 1550 1551 1551 1550 1549 1547 1546 1544 1544 1543 1542 1541 1539 1538 1536 1537 1536 1534 1533 1533 1533 1533 1534 1534
1529 1530 1532 1534 1535 1536 1537 1539 1540 1541 1543 1544 1544 1545 1545 1544 1545 1546 1548 1548 1548 1547 1546 1545 1543 1542 1541 1540 1539 1538 1537 1536 1534 1533 1532 1531 1531 1529 1529 1529 1529 1528 1529
1526 1528 1529 1530 1532 1533 1533 1533 1534 1536 1536 1538 1539 1540 1539 1539 1540 1542 1544 1545 1545 1543 1542 1540 1539 1538 1537 1536 1536 1534 1533 1533 1531 1530 1528 1527 1527 1527 1525 1524 1524 1524 1524
1522 1523 1525 1525 1527 1528 1529 1528 1530 1530 1530 1531 1532 1533 1533 1533 1534 1536 1539 1541 1541 1539 1537 1536 1535 1534 1532 1531 1530 1529 1528 1527 1525 1525 1524 1522 1521 1521 1520 1521 1519 1520 1520
1519 1519 1520 1522 1522 1522 1523 1524 1524 1525 1527 1526 1524 1523 1525 1525 1525 1526 1529 1533 1536 1534 1532 1531 1530 1529 1527 1527 1525 1524 1523 1522 1519 1518 1517 1516 1516 1516 1516 1515 1515 1515 1514
1517 1516 1516 1517 1516 1516 1516 1517 1517 1517 1522 1521 1517 1516 1516 1516 1515 1514 1514 1517 1527 1530 1527 1525 1523 1523 1524 1523 1521 1518 1517 1517 1514 1512 1511 1510 1510 1510 1510 1509 1508 1509 1510
1516 1513 1511 1511 1511 1512 1510 1510 1510 1508 1509 1516 1513 1509 1507 1508 1507 1508 1506 1505 1516 1522 1522 1520 1519 1519 1520 1519 1517 1514 1512 1511 1507 1506 1506 1504 1503 1502 1502 1501 1501 1501 1503
1510 1507 1504 1502 1503 1503 1501 1501 1503 1500 1500 1506 1502 1495 1493 1493 1493 1494 1500 1495 1509 1514 1515 1514 1513 1515 1516 1515 1513 1512 1507 1503 1502 1503 1501 1499 1497 1496 1495 1495 1496 1495 1496
1506 1502 1498 1496 1497 1496 1495 1493 1496 1495 1495 1494 1490 1483 1483 1485 1485 1486 1496 1492 1502 1504 1507 1510 1508 1510 1510 1509 1508 1506 1504 1501 1499 1496 1495 1494 1492 1490 1489 1489 1489 1490 1491
1501 1498 1494 1491 1490 1488 1487 1488 1489 1489 1488 1485 1480 1477 1478 1479 1480 1481 1484 1490 1494 1497 1500 1505 1503 1504 1503 1503 1501 1501 1500 1497 1494 1493 1490 1489 1487 1487 1486 1486 1485 1485 1485
1499 1495 1491 1488 1485 1483 1481 1481 1481 1481 1480 1479 1477 1477 1475 1475 1477 1477 1477 1483 1487 1491 1496 1498 1498 1501 1500 1499 1498 1497 1497 1494 1491 1489 1487 1486 1484 1483 1481 1481 1480 1479 1479